Regional Weather Roundup
Issued by NWS

Home | Current Version | Previous Version | Graphics & Text | Print | Product List | Glossary On
Versions: 1 2 3 4 5 6 7 8 9 10 11 12 13 14 15 16 17 18 19 20 21 22 23 24 25 26 27 28 29 30 31 32 33 34 35 36 37 38 39 40 41 42 43 44 45 46 47 48 49 50
000
ASUS43 KOAX 282210
RWRNE

WEATHER ROUNDUP FOR NEBRASKA
NATIONAL WEATHER SERVICE OMAHA NE
500 PM CDT TUE JUL 28 2015

NOTES: SATELLITE DATA IS BEING USED TO AUGMENT CLOUD COVER ABOVE
       12000 FEET.
       "FAIR" INDICATES FEW OR NO CLOUDS BELOW 12,000 FEET WITH NO
       SIGNIFICANT WEATHER AND/OR OBSTRUCTIONS TO VISIBILITY.

  * THESE STATIONS DO NOT REPORT WEATHER SUCH AS RAIN...SNOW OR FOG.

NEZ001>004-019>022-054>056-282300-
NEBRASKA PANHANDLE

CITY           SKY/WX    TMP DP  RH WIND       PRES   REMARKS
SCOTTSBLUFF    SUNNY     82  29  14 NW6       30.10F
ALLIANCE       SUNNY     81  31  16 NW17G28   30.09F
CHADRON        SUNNY     81  31  16 W17G29    30.07S
KIMBALL        SUNNY     80  28  15 NW12G21   30.14S
SIDNEY         SUNNY     82  31  15 NW12      30.14S
$$

NEZ057>060-069>072-079>082-282300-
SOUTHWEST NEBRASKA

CITY           SKY/WX    TMP DP  RH WIND       PRES   REMARKS
NORTH PLATTE   SUNNY     83  45  26 NE10G17   30.03F
IMPERIAL       SUNNY     85  42  22 N12       30.07F
LEXINGTON      SUNNY     83  52  33 N7        30.02F
MCCOOK         SUNNY     87  48  25 N15       30.02S
OGALLALA       SUNNY     83  42  23 N8        30.08S
$$

NEZ005>010-023>029-035>040-094-282300-
NORTH CENTRAL NEBRASKA

CITY           SKY/WX    TMP DP  RH WIND       PRES   REMARKS
VALENTINE      SUNNY     83  36  18 NW14G24   30.02S
AINSWORTH      SUNNY     83  44  26 W10G16    30.03S
BROKEN BOW     SUNNY     85  53  33 VRB6      30.02S
O`NEILL        MOSUNNY   81  51  35 NW15G21   30.01R
ORD            MOSUNNY   83  51  33 N10       29.99S
THEDFORD       SUNNY     83  44  25 N13       30.07R
$$

NEZ041-046>049-061>064-073>077-083>087-282300-
SOUTH CENTRAL NEBRASKA

CITY           SKY/WX    TMP DP  RH WIND       PRES   REMARKS
GRAND ISLAND   MOSUNNY   82  58  43 N14       29.98S
AURORA         CLOUDY    76  61  58 N14       29.97S
HASTINGS       MOSUNNY   81  59  47 N14       29.98S
HEBRON         SUNNY     84  72  66 N17G23    29.91R
HOLDREGE       SUNNY     81  51  34 N13       30.01S
KEARNEY *      MOSUNNY   82  54  36 N16       30.00S
YORK           PTSUNNY   77  66  69 N13G25    29.96R
$$

NEZ011>018-030>034-042>045-282300-
NORTHEAST NEBRASKA

CITY           SKY/WX    TMP DP  RH WIND       PRES   REMARKS
NORFOLK        LGT RAIN  79  59  50 N9        29.97R
ALBION         PTSUNNY   81  56  43 N8        29.99S
BLAIR          CLOUDY    78  72  80 NW15      29.90S
COLUMBUS *     CLOUDY    79  61  53 N8        29.96R
FREMONT        CLOUDY    77  70  78 NW12      29.93R
TEKAMAH        CLOUDY    78  72  81 N13       29.91R
WAYNE          CLOUDY    77  62  60 NW7       29.97R
$$

NEZ050>053-065>068-078-088>093-282300-
SOUTHEAST NEBRASKA

CITY           SKY/WX    TMP DP  RH WIND       PRES   REMARKS
LINCOLN        MOSUNNY   81  71  71 N24       29.91R
OMAHA EPPLEY   PTSUNNY   89  75  63 NW9       29.86F HX  99
BEATRICE       CLOUDY    91  74  56 CALM      29.86F HX 100
FALLS CITY     SUNNY     94  76  55 S9        29.84S HX 106
NEBRASKA CITY  CLOUDY    90  74  59 W3        29.86S HX  99
PLATTSMOUTH    MOSUNNY   91  76  62 W3        29.87S HX 102
$$

NEZ044-045-051>053-067-282300-
OMAHA AREA

CITY           SKY/WX    TMP DP  RH WIND       PRES   REMARKS
OMAHA EPPLEY   PTSUNNY   89  75  63 NW9       29.86F HX  99
BLAIR          CLOUDY    78  72  80 NW15      29.90S
FREMONT        CLOUDY    77  70  78 NW12      29.93R
MILLARD        MOSUNNY   89  76  64 NW10      29.87S HX 100
OFFUTT AFB     MOSUNNY   89  77  69 NW7       29.85F HX 101
PLATTSMOUTH    MOSUNNY   91  76  62 W3        29.87S HX 102
WAHOO          CLOUDY    76  71  83 NW14      29.92R
$$


USA.gov is the U.S. government's official web portal to all federal, state and local government web resources and services.